Stations météo

réclame
Mon MeteoGroup
Brescia/Ghedi, Italie (16088): Température de l'air & dewpoint: 12.01.2019 12:00:00 - 18.01.2019 12:00:00 (CET)Brescia/Ghedi, Italie (16088): Vitesse du vent: 12.01.2019 12:00:00 - 18.01.2019 12:00:00 (CET)Brescia/Ghedi, Italie (16088): Direction du vent: 12.01.2019 12:00:00 - 18.01.2019 12:00:00 (CET)Brescia/Ghedi, Italie (16088): reduced air pressure: 12.01.2019 12:00:00 - 18.01.2019 12:00:00 (CET)Brescia/Ghedi, Italie (16088): visibility: 12.01.2019 12:00:00 - 18.01.2019 12:00:00 (CET)
Date & Time tt [°C] td [°C] ff [km/h] ff [knt] dd ppp [hPa] vv [km]
18.01.2019 12:00:00 6,5 2,6 9 5 NNW 1012,3 5
18.01.2019 11:00:00 5,2 3,0 5 3 NW 1012,4 3,5
18.01.2019 10:00:00 5,0 3,0 8 4 WNW 1011,7 1,4
18.01.2019 09:00:00 4,0 2,2 5 3 WSW 1010,8 1,0
18.01.2019 08:00:00 4,0 2,2 5 3 WSW 1010,2 1,0
18.01.2019 07:00:00 4,2 2,4 5 3 WSW 1010,0 1,0
18.01.2019 06:00:00 4,2 2,4 4 2 WSW 1010,0 1,2
18.01.2019 05:00:00 4,2 2,4 4 2 SW 1010,2 1,5
18.01.2019 04:00:00 4,2 2,4 4 2 SW 1010,2 1,5
18.01.2019 03:00:00 4,2 2,6 8 4 W 1010,6 1,5
18.01.2019 02:00:00 4,2 2,6 8 4 W 1010,6 1,5
18.01.2019 01:00:00 4,4 2,9 5 3 W 1011,0 1,5
18.01.2019 00:00:00 5,0 3,5 8 4 W 1011,1 1,5
17.01.2019 23:00:00 5,0 3,5 8 4 W 1011,4 1,2
17.01.2019 22:00:00 5,0 3,5 5 3 WNW 1011,7 1,2
17.01.2019 21:00:00 4,9 3,2 9 5 NW 1011,8 1,2
17.01.2019 20:00:00 5,0 3,7 4 2 W 1012,1 1,2
17.01.2019 19:00:00 5,1 3,9 4 2 W 1012,1 0,8
17.01.2019 18:00:00 5,4 4,8 2 1 WSW 1012,3 1,0
17.01.2019 17:00:00 6,0 6,0 4 2 WNW 1012,5 1,4
17.01.2019 16:00:00 6,2 6,1 8 4 E 1012,7 2,5
17.01.2019 15:00:00 6,0 5,9 8 4 E 1013,4 2,5
17.01.2019 14:00:00 5,9 5,6 4 2 N 1014,3 2,3
17.01.2019 13:00:00 5,6 4,9 9 5 ENE 1014,5 3,0
17.01.2019 12:00:00 5,2 4,3 8 4 ENE 1015,5 4,0
17.01.2019 11:00:00 5,2 3,2 2 1 S 1016,1 4,5
17.01.2019 10:00:00 5,4 3,2 8 4 ENE 1015,8 6
17.01.2019 09:00:00 5,0 3,0 8 4 E 1015,6 6
17.01.2019 08:00:00 4,8 2,5 8 4 E 1016,2 6
17.01.2019 07:00:00 4,0 1,7 5 3 E 1016,2 10
17.01.2019 06:00:00 4,2 1,7 9 5 E 1016,4 10
17.01.2019 05:00:00 5,0 2,7 2 1 ESE 1017,4 10
17.01.2019 04:00:00 5,0 4,3 5 3 ESE 1018,0 10
17.01.2019 03:00:00 5,0 4,3 5 3 SE 1018,0 10
17.01.2019 02:00:00 5,3 4,6 4 2 SE 1018,1 10
17.01.2019 01:00:00 5,5 4,8 2 1 E 1018,2 10
17.01.2019 00:00:00 5,0 3,8 8 4 SW 1018,9 10
16.01.2019 23:00:00 5,2 4,5 4 2 W 1018,8 10
16.01.2019 22:00:00 6,0 6,0 5 3 S 1018,6 10
16.01.2019 21:00:00 6,0 6,0 5 3 NW 1018,3 10
16.01.2019 20:00:00 6,0 6,0 4 2 W 1018,3 10
16.01.2019 19:00:00 6,4 6,4 5 3 WSW 1018,1 10
16.01.2019 18:00:00 7,0 7,0 5 3 SW 1018,1 10
16.01.2019 17:00:00 7,8 6,7 9 5 WSW 1018,0 10
16.01.2019 16:00:00 10,2 6,7 9 5 WSW 1018,0 20
16.01.2019 15:00:00 10,2 6,2 11 6 WSW 1018,3 20
16.01.2019 14:00:00 11,2 6,5 9 5 WSW 1018,9 20
16.01.2019 13:00:00 9,2 5,6 5 3 SSW 1019,8 20
16.01.2019 12:00:00 6,4 3,2 4 2 S 1020,8 20
16.01.2019 11:00:00 5,8 2,8 4 2 S 1020,9 20
16.01.2019 10:00:00 3,0 3,0 2 1 NE 1020,5 20
16.01.2019 09:00:00 -1,2 -1,2 4 2 NW 1020,3 20
16.01.2019 08:00:00 -0,9 -0,9 2 1 S 1020,2 20
16.01.2019 07:00:00 -2,2 -2,2 5 3 E 1020,2 10
16.01.2019 06:00:00 -1,9 -1,9 5 3 ENE 1020,2 10
16.01.2019 05:00:00 -1,0 -1,0 4 2 N 1020,7 10
16.01.2019 04:00:00 -2,6 -2,6 4 2 ENE 1020,5 10
16.01.2019 03:00:00 -1,9 -1,9 4 2 NNW 1020,5 10
16.01.2019 02:00:00 -1,3 -1,3 2 1 NE 1020,5 10
16.01.2019 01:00:00 -2,0 -2,0 8 4 N 1020,7 10
16.01.2019 00:00:00 -1,1 -1,1 4 2 NE 1020,7 10
15.01.2019 23:00:00 -0,7 -0,7 4 2 NE 1020,7 10
15.01.2019 22:00:00 -0,4 -0,4 4 2 NNE 1020,3 10
15.01.2019 21:00:00 0,2 -0,5 2 1 S 1019,8 10
15.01.2019 20:00:00 7,8 6,3 5 3 SE 1018,5 20
15.01.2019 19:00:00 8,0 5,3 8 4 N 1017,9 20
15.01.2019 18:00:00 6,0 1,4 2 1 WSW 1018,0 30
15.01.2019 17:00:00 9,0 1,7 5 3 WNW 1017,7 30
15.01.2019 16:00:00 10,5 1,8 8 4 WSW 1017,7 30
15.01.2019 15:00:00 11,0 -0,5 8 4 SW 1017,7 30
15.01.2019 14:00:00 10,8 1,1 4 2 NW 1017,6 30
15.01.2019 13:00:00 10,2 1,3 9 5 WNW 1018,0 30
15.01.2019 12:00:00 8,0 0,7 9 5 NW 1018,9 30
15.01.2019 11:00:00 6,4 0,3 9 5 WNW 1019,0 30
15.01.2019 10:00:00 3,8 0,3 5 3 W 1017,9 30
15.01.2019 09:00:00 1,2 -2,7 9 5 WNW 1016,9 30
15.01.2019 08:00:00 1,0 -1,9 11 6 ENE 1016,4 30
15.01.2019 07:00:00 0,8 -1,8 4 2 WNW 1015,7 20
15.01.2019 06:00:00 1,0 -1,9 11 6 ENE 1014,9 20
15.01.2019 05:00:00 2,0 -2,3 15 8 NNW 1014,1 20
15.01.2019 04:00:00 3,0 -1,9 16 9 NW 1014,1 20
15.01.2019 03:00:00 2,5 -3,8 9 5 NNW 1014,0 20
15.01.2019 02:00:00 4,0 -3,1 11 6 N 1013,4 20
15.01.2019 01:00:00 3,5 -3,8 15 8 N 1012,9 20
15.01.2019 00:00:00 4,4 -3,6 9 5 N 1012,4 20
14.01.2019 23:00:00 5,5 -4,6 9 5 NW 1011,3 20
14.01.2019 22:00:00 5,5 -4,9 16 9 NW 1010,8 20
14.01.2019 21:00:00 8,8 -3,4 16 9 NW 1010,2 20
14.01.2019 20:00:00 8,0 -5,4 13 7 NW 1009,2 30
14.01.2019 19:00:00 9,9 -5,6 26 14 NW 1007,6 30
14.01.2019 18:00:00 11,7 -6,2 18 10 NW 1006,8 30
14.01.2019 17:00:00 13,7 -7,0 21 11 WNW 1005,9 30
14.01.2019 16:00:00 13,1 -5,0 28 15 NNW 1005,0 30
14.01.2019 15:00:00 10,5 3,3 9 5 WSW 1005,1 10
14.01.2019 14:00:00 9,2 1,6 8 4 S 1005,2 10
14.01.2019 13:00:00 8,0 1,2 4 2 SSE 1005,5 10
14.01.2019 12:00:00 6,1 0,7 2 1 ENE 1005,5 10
14.01.2019 11:00:00 6,0 1,0 5 3 S 1005,5 20
14.01.2019 10:00:00 3,0 -0,5 4 2 SSW 1004,4 20
14.01.2019 09:00:00 1,3 -0,9 5 3 SSE 1003,2 10
14.01.2019 08:00:00 1,4 -0,5 9 5 ENE 1001,2 9
14.01.2019 07:00:00 2,6 -0,7 9 5 ENE 999,8 10
14.01.2019 06:00:00 4,0 0,7 16 9 W 999,9 10
14.01.2019 05:00:00 3,9 0,8 15 8 WNW 999,9 10
14.01.2019 04:00:00 4,2 0,0 18 10 WNW 999,9 10
14.01.2019 03:00:00 2,0 -1,4 18 10 WNW 1000,0 10
14.01.2019 02:00:00 -0,2 -1,6 4 2 SSW 1001,8 10
14.01.2019 01:00:00 0,0 -1,4 4 2 SSE 1002,1 10
14.01.2019 00:00:00 -0,8 -2,1 2 1 WSW 1003,5 10
13.01.2019 23:00:00 -0,8 -2,4 2 1 S 1004,5 10
13.01.2019 22:00:00 1,2 -0,9 5 3 ENE 1005,4 10
13.01.2019 21:00:00 1,2 -1,5 2 1 W 1006,1 10
13.01.2019 20:00:00 2,4 -0,7 5 3 WSW 1007,0 10
13.01.2019 19:00:00 2,5 -1,1 9 5 WSW 1007,6 8
13.01.2019 18:00:00 3,4 -1,2 9 5 WSW 1008,4 6
13.01.2019 17:00:00 4,5 -1,5 5 3 W 1009,1 5
13.01.2019 16:00:00 5,8 -1,1 5 3 W 1009,6 6
13.01.2019 15:00:00 6,8 -0,9 5 3 WSW 1010,5 10
13.01.2019 14:00:00 6,8 -0,4 5 3 SE 1011,3 10
13.01.2019 13:00:00 6,0 -2,6 9 5 E 1012,5 7
13.01.2019 12:00:00 4,0 -1,0 4 2 SSE 1013,0 6
13.01.2019 11:00:00 2,2 2,2 4 2 SW 1013,6 6
13.01.2019 10:00:00 0,0 0,0 4 2 WNW 1013,6 5
13.01.2019 09:00:00 -2,4 -2,4 5 3 N 1013,4 5
13.01.2019 08:00:00 -3,0 -3,0 2 1 SSW 1012,9 5
13.01.2019 07:00:00 -2,8 -2,8 8 4 NNW 1012,8 10
13.01.2019 06:00:00 -2,8 -2,8 4 2 W 1013,1 10
13.01.2019 05:00:00 -2,4 -2,4 4 2 NNW 1013,2 10
13.01.2019 04:00:00 -2,0 -2,0 5 3 NE 1013,2 10
13.01.2019 03:00:00 -2,0 -2,0 5 3 NE 1013,8 10
13.01.2019 02:00:00 -1,0 -1,0 2 1 NNE 1014,2 10
13.01.2019 01:00:00 0,0 0,0 4 2 ENE 1014,4 10
13.01.2019 00:00:00 0,0 0,0 8 4 ENE 1014,6 10
12.01.2019 23:00:00 0,0 0,0 5 3 NE 1015,5 10
12.01.2019 22:00:00 -0,2 -0,2 5 3 ENE 1015,7 10
12.01.2019 21:00:00 -0,8 -0,8 4 2 NE 1016,1 10
12.01.2019 20:00:00 -0,2 -0,2 5 3 ENE 1017,2 10
12.01.2019 19:00:00 1,0 0,4 5 3 E 1017,4 10
12.01.2019 18:00:00 1,8 0,3 9 5 ESE 1017,3 10
12.01.2019 17:00:00 3,4 -0,2 9 5 SSE 1017,3 10
12.01.2019 16:00:00 6,0 1,0 9 5 ESE 1017,6 10
12.01.2019 15:00:00 5,6 1,5 2 1 W 1018,0 10
12.01.2019 14:00:00 4,2 2,1 5 3 W 1018,2 10
12.01.2019 13:00:00 3,0 1,5 5 3 W 1019,1 10
12.01.2019 12:00:00 2,7 1,5 8 4 W 1019,5 10

tt = Température de l'air
td = dewpoint
ff = Vitesse du vent
dd = Direction du vent
ppp = reduced air pressure
vv = visibility

stations d'obs. à proximité